Погода в Катичах

Россия / Брянская область     52°40′13″N   31°45′30″E
темп.,
°C
ветер,
м/с
пор.,
м/с
влажн.,
%
обл.,
%
осадки,
мм/ч
давл.,
гПа
погр.,
м
15 апреля, чт
чт1500:00+10ссв2279100 0.0 101533
03:00+9св2392100 0.4 101493
06:00+9св2493100 0.3 1013133
09:00+10ссв348995 0.3 1013384
12:00+15всв3463100 0.4 10111266
15:00+12ю447998 2.4 1011514
18:00+13ю2373100 0.7 1010640
21:00+9ююв22865 0.9 101114
16 апреля, пт
пт1600:00+8в11885 0.0 101110
03:00+7всв339147 0.2 101148
06:00+8всв3792100 0.6 1011175
09:00+9вюв7108286 0.8 1012785
12:00+11вюв7967100 0.4 10131295
15:00+12вюв71061100 0.9 10131766
18:00+10юв6107640 0.4 1014926
21:00+8юв498753 0.5 1015496
17 апреля, сб
сб1700:00+6в369324 0.0 1016108
03:00+6в379250 0.1 1017202
06:00+6вюв379453 0.0 1018183
09:00+9юв347791 0.0 1019445
12:00+11св1261100 0.0 10191128
15:00+10ссв4473100 0.6 1020466
18:00+8вюв1185100 0.9 1019155
21:00+8зюз0089100 1.3 102021
18 апреля, вс
вс1800:00+8с0090100 0.1 102014
03:00+7зсз1290100 0.1 102038
06:00+7ссз239299 0.0 102096
09:00+8ссв2493100 0.0 1020297
12:00+12всв4570100 0.0 1020922
15:00+12всв6766100 0.0 10201139
18:00+11всв576994 0.0 10211131
21:00+9всв41078100 0.0 1022436
19 апреля, пн
пн1900:00+8всв3980100 0.1 1023273
03:00+8св368496 0.1 1023167
06:00+4всв49949 0.0 1024192
09:00+8всв57789 0.0 1023526
12:00+11в576298 0.1 10231463
15:00+11всв696096 0.1 10221576
18:00+11в5962100 0.0 1022725
21:00+9всв512766 0.3 1021679